Location: Proctor
(47.8934°N, 114.3048°W)
Time: 10:51:05
(UTC+00:00)

AIST 2D - Pass Details

Date: 08 July 2022
Orbit: 433 x 444 km, 97.0° (Epoch: 10 August)

Event Time Altitude Azimuth Distance (km) Brightness Sun altitude
Rises 05:16:53 0° 12° (NNE) 2,432 ? -12.4°
Reaches altitude 10° 05:18:54 10° 13° (NNE) 1,559 ? -12.6°
Maximum altitude 05:22:15 87° 97° (E) 446 ? -12.9°
Enters shadow 05:24:56 15° 192° (SSW) 1,277 ? -13.2°
